Location: Bandys
(35.4750°N, 81.0830°W)
Time: 02:46:23
(UTC-05:00)

Daily predictions for brighter satellites

Satellite Brightness Start Highest point End
(mag) Time Altitude Azimuth Time Altitude Azimuth Time Altitude Azimuth
Milstar 3 Cent rocket 4.0 04:00:25 44° SSE 04:00:25 44° SSE 04:10:25 10° ESE
USA 234 4.2 04:18:35 10° E 04:24:32 39° NE 04:24:58 38° NNE
Lacrosse 5 rocket 4.3 04:29:41 13° NE 04:29:41 13° NE 04:31:05 10° ENE
ATLAS 2AS CENTAUR R/B 4.5 04:39:18 18° S 04:39:18 18° S 04:41:01 10° S
Cosmos 1634 Rocket 4.4 04:40:46 37° NNE 04:43:13 61° E 04:49:27 10° SSE
NOSS 3-4 (A) 3.9 04:52:08 54° NNW 04:53:59 77° ENE 05:01:39 10° SE
NOSS 3-4 (C) 3.9 04:52:11 53° NNW 04:54:06 76° ENE 05:01:45 10° SE
Cosmos 44 Rocket 4.0 04:54:52 49° E 04:54:52 49° E 04:58:56 10° NE
Cosmos 2082 Rocket 2.2 05:00:21 45° S 05:02:11 80° ESE 05:07:55 10° NNE
Cosmos 1697 Rocket 3.7 05:05:47 21° N 05:09:05 42° ENE 05:14:22 10° SE
OAO 2 Rocket 3.2 05:13:29 83° SW 05:13:39 85° S 05:18:52 10° E
Meteosat 1 Rocket2 4.4 05:14:23 26° SSE 05:14:23 26° SSE 05:16:53 10° SE
CZ-4C R/B 4.3 05:12:29 10° SSE 05:16:25 23° ESE 05:20:41 10° ENE
CZ-2C R/B 4.4 05:12:39 10° NE 05:16:49 28° E 05:20:50 10° SSE
Cosmos 1833 Rocket 2.5 05:16:11 56° SW 05:17:18 73° WNW 05:22:55 10° NNE
Landsat 4 4.0 05:19:48 10° SSE 05:23:29 64° ENE 05:23:47 61° NE
Cosmos 2084 3.4 05:25:13 66° SSE 05:25:13 66° SSE 05:28:39 10° SSE
Cosmos 1536 4.3 05:23:44 10° SSE 05:27:28 37° E 05:31:13 10° NNE
Meteor 1-18 Rocket 4.4 05:30:18 46° WNW 05:31:13 50° W 05:36:54 10° SSW
Feng Yun 1-1 Rocket 4.3 05:26:58 10° NNE 05:32:50 85° ESE 05:38:31 10° SSW
NOAA 6 3.9 05:29:48 10° NNE 05:34:57 89° E 05:40:06 10° SSW
Meteor 1-11 Rocket 4.0 05:29:27 10° S 05:35:23 74° E 05:41:17 10° NNE
Cosmos 2142 Rocket 4.5 05:32:45 23° NNW 05:36:33 56° W 05:42:34 10° SSW
Cosmos 2151 Rocket 3.9 05:32:17 10° S 05:36:37 66° E 05:40:59 10° NNE
Cosmos 1975 Rocket 3.1 05:37:39 53° W 05:37:39 53° W 05:41:47 10° S
IDEFIX/ARIANE 42P 2.8 05:35:12 10° NNE 05:40:24 72° ESE 05:45:36 10° S
Cosmos 44 3.7 05:43:32 36° NNW 05:43:32 36° NNW 05:46:46 10° NNE
PAYLOAD A 4.2 05:38:42 10° NNE 05:44:10 83° ESE 05:49:32 10° S
Okean 2 Rocket 3.3 05:41:07 10° SSW 05:45:25 45° W 05:49:46 10° N
Cosmos 1980 Rocket 3.0 05:42:00 10° N 05:47:34 51° ENE 05:53:03 10° SE
SJ 16-02 1.2 05:45:53 30° NNW 05:48:02 76° WSW 05:52:27 10° S
Cosmos 292 Rocket 4.1 05:48:56 36° W 05:49:51 39° WNW 05:54:19 10° N
Okean-O 2.5 05:46:17 10° N 05:50:41 64° WNW 05:55:04 10° SSW
SL-24 R/B - RUBIN 2 3.5 05:51:41 36° NW 05:53:17 60° WSW 05:57:29 10° SSE
Meteor 2-4 Rocket 3.8 05:49:11 10° N 05:54:36 76° E 06:00:08 10° SSE
MTI 3.8 05:52:45 10° S 05:55:51 50° W 05:55:58 50° W
Cosmos 2279 Rocket 4.0 05:50:22 10° NNW 05:56:28 58° W 06:02:31 10° S
RESURS DK-1 3.8 05:53:22 10° N 05:57:12 35° ENE 06:01:00 10° SE
Cosmos 1300 Rocket 3.7 05:54:34 10° S 05:58:50 72° E 06:03:09 10° NNE
CZ-4 R/B 4.5 05:58:40 10° NE 06:01:36 18° E 06:04:33 10° SE
Cosmos 1536 Rocket 3.5 06:01:05 10° N 06:05:26 87° E 06:09:47 10° S
Meteor 1-19 Rocket 4.4 06:00:25 10° NNW 06:06:12 58° W 06:11:55 10° S
COSMO-SKYMED 1 2.7 06:02:09 10° S 06:06:22 52° W 06:10:14 12° NNW
Meteor 1-4 Rocket 4.3 06:03:38 10° SSE 06:07:05 36° E 06:10:35 10° NNE
USA 234 3.4 06:00:52 10° SSE 06:07:18 58° SW 06:12:20 17° NW
Lacrosse 5 rocket 1.6 06:05:24 20° NW 06:08:35 78° NE 06:13:03 10° SE
Cosmos 1125 Rocket 3.9 06:05:45 20° NW 06:08:54 40° WSW 06:13:44 10° S
BREEZE-M DEB (TANK) 4.0 06:07:11 20° NW 06:09:24 48° NNE 06:16:05 10° ESE
Thor Agena Rocket 4.2 06:10:50 10° SSE 06:15:44 55° ENE 06:20:40 10° N
Cosmos 773 Rocket 4.2 06:11:40 10° S 06:16:46 74° ESE 06:21:54 10° NNE
Cosmos 2360 4.3 06:11:03 10° NNW 06:16:48 85° ENE 06:22:31 10° SSE
Cosmos 1484 Rocket 4.0 06:14:01 10° NNE 06:17:48 45° E 06:21:29 10° S
Tiangong 2 2.8 06:18:23 17° WSW 06:19:35 21° SW 06:22:04 10° SSE
SL-16 R/B 3.8 06:15:36 10° N 06:20:40 32° ENE 06:25:41 10° SE
Cosmos 1025 Rocket 4.3 06:16:48 10° N 06:20:52 42° E 06:24:56 10° SSE
EO 1 Del DPAF 4.0 06:19:52 10° SSW 06:23:19 32° W 06:26:23 12° NW
Okean 1 Rocket 3.0 06:20:21 10° S 06:24:41 88° E 06:29:05 10° N
Cosmos 2322 Rocket 3.6 06:24:41 10° N 06:29:55 37° ENE 06:35:09 10° SE
Meteor 1-5 Rocket 4.2 06:25:01 10° SSW 06:30:26 54° W 06:35:44 10° N
Cosmos 1437 Rocket 3.4 06:29:40 10° SW 06:33:21 35° WNW 06:37:00 10° N
Cosmos 1538 Rocket 4.0 06:28:35 10° SSW 06:33:42 61° WNW 06:38:55 10° N
GEOS 3 Rocket 4.1 06:29:01 10° NNE 06:34:02 41° NW 06:39:01 10° WSW
MSX 3.9 06:29:55 10° N 06:35:33 58° WNW 06:41:08 10° SSW
Cosmos 1975 3.9 06:37:07 10° SSE 06:40:58 49° E 06:44:49 10° NNE
Cosmos 923 Rocket 4.5 06:37:15 10° S 06:42:28 68° ESE 06:47:40 10° NNE
Nadezhda 4 Rocket 4.5 06:40:06 10° SW 06:45:43 36° WNW 06:51:20 10° NNW
Cosmos 2082 Rocket 3.8 06:44:03 10° W 06:46:55 14° NW 06:49:49 10° NNW
CSL-04 Rocket 3.8 06:42:08 10° NNE 06:47:44 88° W 06:53:15 10° SSW
YAOGAN 1 3.9 06:45:35 10° NNE 06:49:45 45° E 06:53:54 10° S
Timation 2 Rocket 4.5 06:43:15 10° SW 06:49:47 47° WNW 06:56:24 10° N
Meteor 1-23 Rocket 4.4 06:46:09 10° NNW 06:51:30 49° W 06:56:47 10° SSW
Cosmos 1697 Rocket 3.9 06:48:27 10° NW 06:52:41 22° W 06:56:55 10° SSW
CZ-2C R/B 3.3 06:50:55 10° NNW 06:54:56 26° WNW 06:58:50 10° SW
OAO 2 Rocket 4.0 06:53:17 10° W 06:58:21 51° SSW 07:03:19 10° SE
